Location: Newark
(48.6308°N, 2.9839°W)
Time: 09:35:04
(UTC+00:00)

ISS - Visible Passes

Search period start: 13 November 2019 00:00
Search period end: 23 November 2019 00:00
Orbit: 412 x 421 km, 51.6° (Epoch: 13 November)

Date Brightness Start Highest point End Pass type
(mag) Time Alt. Az. Time Alt. Az. Time Alt. Az.
13 Nov -0.9 04:48:32 11° SSE 04:48:32 11° SSE 04:48:41 10° SSE visible
21 Nov -1.2 18:15:12 10° SSE 18:15:39 11° SSE 18:15:39 11° SSE visible
22 Nov -1.2 19:01:22 10° SW 19:02:20 17° SSW 19:02:20 17° SSW visible
